Regional Weather Roundup
Issued by NWS

Home | Current Version | Previous Version | Graphics & Text | Print | Product List | Glossary On
Versions: 1 2 3 4 5 6 7 8 9 10 11 12 13 14 15 16 17 18 19 20 21 22 23 24 25 26 27
000
ASUS45 KCYS 180810
RWRWY

WYOMING REGIONAL WEATHER ROUNDUP
NATIONAL WEATHER SERVICE CHEYENNE WY
200 AM MDT FRI AUG 18 2017

NOTE:  "FAIR" INDICATES FEW OR NO CLOUDS BELOW 12,000 FEET
WITH NO SIGNIFICANT WEATHER AND/OR OBSTRUCTIONS TO VISIBILITY.

WYZ001-180900-
YELLOWSTONE NATIONAL PARK

CITY           SKY/WX    TMP DP  RH WIND       PRES   REMARKS
LK YELLOWSTONE   N/A     39  36  89 W3        30.37S
W YELLOWSTONE  NOT AVBL

$$
WYZ002>013-054>058-071-098>099-180900-
NORTHERN WYOMING

CITY           SKY/WX    TMP DP  RH WIND       PRES   REMARKS
JACKSON        FAIR     N/A N/A N/A NE5       30.29S
CODY           FAIR      62  40  44 SW6       30.17F
GREYBULL       FAIR      57  43  59 SE5       30.07S
WORLAND        FAIR      60  38  43 S10       30.09S
SHERIDAN       FAIR      54  43  66 S3        30.08S
BUFFALO        FAIR      64  33  31 W3        30.15R
GILLETTE       FAIR      63  44  50 SW14      30.08F
HULETT         FAIR      63  43  48 SW10      30.08S
NEWCASTLE      FAIR      54  41  62 N8G17     30.10S

$$
WYZ014>020-022>026-101>103-180900-
CENTRAL WYOMING

CITY           SKY/WX    TMP DP  RH WIND       PRES   REMARKS
BIG PINEY      FAIR      44  30  57 N5        30.32S
PINEDALE       FAIR      41  32  70 W6        30.33S
DUBOIS         FAIR      48  32  53 NW10      30.31S
LANDER           N/A    N/A N/A N/A MISG      30.19S
RIVERTON       FAIR      62  40  44 NE7       30.19F
CASPER         FAIR      50  44  80 NW8       30.18R
DOUGLAS        FAIR      52  48  86 N5        30.16S

$$
WYZ021-027>030-104>119-180900-
SOUTHERN WYOMING

CITY           SKY/WX    TMP DP  RH WIND       PRES   REMARKS
EVANSTON       FAIR      59  35  40 S3        30.33S
KEMMERER         N/A     52  32  46 NW9       30.34S
FORT BRIDGER   FAIR      60  32  34 SW7       30.35R
ROCK SPRINGS   FAIR      57  32  38 SW8       30.29S
RAWLINS        FAIR      53  33  46 W5        30.26S
SARATOGA       FAIR      54  36  50 CALM      30.28S
LARAMIE        FAIR      56  37  49 N3        30.26S
CHEYENNE       FAIR      55  44  66 N6        30.22S
TORRINGTON     FAIR      56  49  77 NW7       30.10S
PINE BLUFFS    FAIR      50  46  87 CALM      30.17S

$$




USA.gov is the U.S. government's official web portal to all federal, state and local government web resources and services.